�������l�o���
Date,Time,MP-1(��Sv/h),MP-2(��Sv/h),MP-3(��Sv/h),MP-4(��Sv/h),MP-5(��Sv/h),MP-6(��Sv/h),MP-7(��Sv/h),MP-8(��Sv/h),����,����(m/s),���J
2023/05/30,00:00,0.550,0.810,0.495,0.988,0.714,0.326,0.572,0.541,-,CALM,��
2023/05/30,00:10,0.549,0.811,0.492,0.988,0.717,0.326,0.573,0.542,-,CALM,��
2023/05/30,00:20,0.549,0.809,0.495,0.991,0.714,0.327,0.571,0.541,���쐼,0.9,��
2023/05/30,00:30,0.549,0.810,0.496,0.991,0.715,0.326,0.572,0.541,�k��,1.5,��
2023/05/30,00:40,0.551,0.814,0.495,0.991,0.715,0.327,0.572,0.540,�k��,2.0,��
2023/05/30,00:50,0.550,0.811,0.494,0.992,0.717,0.325,0.573,0.541,�k�k��,1.5,��
2023/05/30,01:00,0.551,0.812,0.495,0.990,0.717,0.327,0.574,0.542,�k��,2.9,��
2023/05/30,01:10,0.550,0.811,0.496,0.992,0.715,0.327,0.570,0.541,�k��,4.4,��
2023/05/30,01:20,0.552,0.811,0.496,0.991,0.716,0.327,0.573,0.541,���k��,3.6,��
2023/05/30,01:30,0.551,0.810,0.494,0.991,0.715,0.325,0.573,0.542,���k��,2.9,��
2023/05/30,01:40,0.550,0.810,0.494,0.990,0.716,0.325,0.573,0.540,���k��,3.5,��
2023/05/30,01:50,0.550,0.811,0.494,0.990,0.717,0.326,0.571,0.540,���k��,4.5,��
2023/05/30,02:00,0.549,0.811,0.494,0.989,0.713,0.325,0.572,0.541,�k��,3.7,��
2023/05/30,02:10,0.550,0.811,0.494,0.989,0.715,0.326,0.574,0.540,�k��,3.7,��
2023/05/30,02:20,0.548,0.808,0.493,0.990,0.715,0.325,0.573,0.540,�k��,3.8,��
2023/05/30,02:30,0.549,0.808,0.492,0.987,0.714,0.325,0.573,0.540,�k��,5.5,��
2023/05/30,02:40,0.549,0.810,0.492,0.991,0.716,0.325,0.572,0.541,�k��,5.9,��
2023/05/30,02:50,0.548,0.810,0.492,0.990,0.713,0.324,0.572,0.540,�k��,5.0,��
2023/05/30,03:00,0.548,0.809,0.493,0.989,0.716,0.326,0.572,0.540,���k��,3.6,��
2023/05/30,03:10,0.549,0.811,0.492,0.991,0.714,0.325,0.572,0.540,�k��,4.2,��
2023/05/30,03:20,0.549,0.806,0.491,0.991,0.715,0.326,0.572,0.540,�k��,4.4,��
2023/05/30,03:30,0.548,0.808,0.492,0.987,0.713,0.326,0.571,0.540,�k��,3.7,��
2023/05/30,03:40,0.547,0.808,0.492,0.989,0.715,0.326,0.573,0.539,�k��,3.9,��
2023/05/30,03:50,0.548,0.808,0.492,0.987,0.714,0.325,0.572,0.540,�k��,3.7,��
2023/05/30,04:00,0.550,0.808,0.491,0.989,0.714,0.325,0.573,0.540,���k��,5.3,��
2023/05/30,04:10,0.548,0.808,0.491,0.988,0.713,0.326,0.572,0.540,�k��,6.3,��
2023/05/30,04:20,0.548,0.810,0.493,0.989,0.713,0.324,0.572,0.538,�k��,5.7,��
2023/05/30,04:30,0.547,0.808,0.490,0.988,0.715,0.326,0.574,0.538,�k��,5.6,��
2023/05/30,04:40,0.548,0.808,0.492,0.988,0.713,0.325,0.573,0.539,�k��,5.5,��
2023/05/30,04:50,0.546,0.809,0.492,0.990,0.713,0.327,0.572,0.539,�k��,4.9,��
2023/05/30,05:00,0.547,0.808,0.491,0.989,0.712,0.326,0.573,0.539,�k��,5.7,��
2023/05/30,05:10,0.547,0.809,0.493,0.989,0.714,0.324,0.573,0.541,�k��,4.0,��
2023/05/30,05:20,0.548,0.807,0.493,0.990,0.714,0.325,0.573,0.540,�k��,4.3,��
2023/05/30,05:30,0.549,0.809,0.493,0.987,0.717,0.324,0.573,0.539,�k��,4.0,��
2023/05/30,05:40,0.547,0.809,0.491,0.990,0.715,0.324,0.572,0.540,�k��,3.9,��
2023/05/30,05:50,0.550,0.810,0.492,0.989,0.715,0.324,0.575,0.541,�k��,2.3,��
2023/05/30,06:00,0.548,0.809,0.493,0.990,0.715,0.325,0.573,0.540,�k�k��,0.9,��
2023/05/30,06:10,0.548,0.810,0.493,0.989,0.714,0.326,0.573,0.540,-,CALM,��
2023/05/30,06:20,0.549,0.807,0.494,0.990,0.716,0.325,0.572,0.540,���k��,0.9,��
2023/05/30,06:30,0.548,0.813,0.494,0.990,0.715,0.325,0.573,0.541,�k��,0.9,��
2023/05/30,06:40,0.549,0.810,0.494,0.989,0.716,0.324,0.574,0.541,���k��,0.8,��
2023/05/30,06:50,0.551,0.811,0.493,0.990,0.717,0.325,0.573,0.540,�k�k��,0.8,��
2023/05/30,07:00,0.549,0.810,0.491,0.993,0.715,0.324,0.574,0.541,�k,1.2,��
2023/05/30,07:10,0.550,0.811,0.494,0.992,0.716,0.324,0.573,0.541,�k�k��,1.2,��
2023/05/30,07:20,0.549,0.812,0.493,0.992,0.714,0.324,0.572,0.540,�k�k��,0.9,��
2023/05/30,07:30,0.550,0.809,0.493,0.990,0.716,0.323,0.573,0.540,�k��,1.2,��
2023/05/30,07:40,0.549,0.810,0.494,0.990,0.712,0.322,0.573,0.541,�k��,1.7,��
2023/05/30,07:50,0.547,0.811,0.493,0.990,0.714,0.324,0.572,0.540,��,1.9,��
2023/05/30,08:00,0.550,0.809,0.492,0.990,0.716,0.322,0.573,0.540,�k��,2.6,��
2023/05/30,08:10,0.549,0.809,0.494,0.990,0.713,0.324,0.570,0.538,���k��,2.2,��
2023/05/30,08:20,0.549,0.809,0.493,0.989,0.714,0.325,0.573,0.539,�k�k��,2.6,��
2023/05/30,08:30,0.548,0.805,0.492,0.989,0.714,0.324,0.573,0.538,�k��,2.6,��
2023/05/30,08:40,0.547,0.808,0.491,0.989,0.713,0.324,0.573,0.540,�k��,2.3,��
2023/05/30,08:50,0.546,0.808,0.491,0.988,0.715,0.324,0.571,0.538,���k��,1.9,��
2023/05/30,09:00,0.547,0.808,0.492,0.990,0.715,0.325,0.572,0.539,��,2.5,��
2023/05/30,09:10,0.547,0.809,0.492,0.988,0.712,0.325,0.572,0.539,���쓌,2.3,��
2023/05/30,09:20,0.549,0.807,0.490,0.991,0.714,0.323,0.574,0.537,��,2.3,��
2023/05/30,09:30,0.548,0.807,0.492,0.990,0.714,0.323,0.573,0.537,���쓌,2.5,��
2023/05/30,09:40,0.546,0.808,0.492,0.989,0.713,0.324,0.573,0.539,���쓌,2.6,��
2023/05/30,09:50,0.546,0.809,0.492,0.993,0.715,0.324,0.572,0.539,���쓌,2.6,��
2023/05/30,10:00,0.544,0.811,0.491,0.990,0.716,0.323,0.573,0.539,��,2.2,��
2023/05/30,10:10,0.545,0.810,0.491,0.989,0.716,0.324,0.573,0.539,���쓌,2.6,��
2023/05/30,10:20,0.543,0.809,0.493,0.990,0.718,0.325,0.573,0.539,�쓌,4.1,��
2023/05/30,10:30,0.545,0.812,0.494,0.990,0.716,0.324,0.574,0.539,���쓌,3.9,��
2023/05/30,10:40,0.545,0.812,0.492,0.991,0.716,0.325,0.573,0.538,���쓌,3.3,��
2023/05/30,10:50,0.547,0.811,0.492,0.991,0.717,0.325,0.575,0.538,�쓌,3.8,��
2023/05/30,11:00,0.546,0.812,0.494,0.988,0.718,0.325,0.574,0.539,�쓌,3.4,��
2023/05/30,11:10,0.545,0.812,0.493,0.988,0.718,0.325,0.574,0.539,�쓌,3.5,��
2023/05/30,11:20,0.545,0.811,0.494,0.989,0.718,0.325,0.572,0.539,��쓌,3.4,��
2023/05/30,11:30,0.547,0.812,0.493,0.988,0.717,0.325,0.572,0.539,��쓌,3.7,��
2023/05/30,11:40,0.546,0.812,0.494,0.989,0.717,0.325,0.574,0.539,�쓌,4.4,��
2023/05/30,11:50,0.546,0.813,0.493,0.988,0.718,0.326,0.573,0.539,�쓌,2.9,��
2023/05/30,12:00,0.546,0.816,0.494,0.987,0.719,0.325,0.574,0.539,��쓌,3.8,��
2023/05/30,12:10,0.548,0.815,0.494,0.989,0.717,0.324,0.573,0.540,��쓌,4.1,��
2023/05/30,12:20,0.547,0.815,0.496,0.988,0.718,0.325,0.573,0.539,�쓌,4.9,��
2023/05/30,12:30,0.548,0.814,0.494,0.991,0.718,0.324,0.574,0.540,��쓌,5.1,��
2023/05/30,12:40,0.548,0.815,0.495,0.992,0.719,0.325,0.574,0.539,��쓌,5.5,��
2023/05/30,12:50,0.547,0.815,0.495,0.987,0.720,0.324,0.574,0.539,��쓌,6.5,��
2023/05/30,13:00,0.548,0.815,0.494,0.992,0.718,0.326,0.575,0.539,��쓌,5.1,��
2023/05/30,13:10,0.547,0.815,0.494,0.990,0.720,0.325,0.574,0.540,�쓌,4.1,��
2023/05/30,13:20,0.547,0.815,0.494,0.988,0.719,0.326,0.575,0.539,�쓌,3.9,��
2023/05/30,13:30,0.547,0.814,0.495,0.993,0.719,0.324,0.575,0.540,�쓌,3.9,��
2023/05/30,13:40,0.547,0.816,0.494,0.992,0.720,0.325,0.574,0.539,�쓌,4.5,��
2023/05/30,13:50,0.547,0.815,0.495,0.990,0.720,0.326,0.576,0.540,�쓌,3.9,��
2023/05/30,14:00,0.547,0.815,0.493,0.989,0.722,0.325,0.574,0.539,�쓌,3.6,��
2023/05/30,14:10,0.547,0.814,0.495,0.990,0.719,0.323,0.575,0.540,�쓌,4.0,��
2023/05/30,14:20,0.548,0.814,0.495,0.992,0.721,0.324,0.574,0.540,��쓌,4.2,��
2023/05/30,14:30,0.548,0.815,0.494,0.990,0.721,0.325,0.574,0.540,��쓌,3.3,��
2023/05/30,14:40,0.548,0.817,0.494,0.991,0.723,0.326,0.575,0.538,��쓌,3.6,��
2023/05/30,14:50,0.549,0.815,0.495,0.994,0.721,0.327,0.575,0.540,��쓌,3.8,��
2023/05/30,15:00,0.548,0.815,0.495,0.990,0.720,0.325,0.575,0.540,�쓌,4.6,��
2023/05/30,15:10,0.548,0.815,0.492,0.991,0.721,0.324,0.573,0.539,��쓌,4.7,��
2023/05/30,15:20,0.549,0.814,0.493,0.989,0.720,0.325,0.574,0.539,��쓌,5.1,��
2023/05/30,15:30,0.547,0.814,0.493,0.992,0.721,0.325,0.575,0.540,�쓌,5.0,��
2023/05/30,15:40,0.549,0.814,0.492,0.991,0.721,0.327,0.575,0.539,��쓌,4.9,��
2023/05/30,15:50,0.548,0.815,0.494,0.991,0.721,0.325,0.576,0.540,��쓌,3.2,��
2023/05/30,16:00,0.548,0.816,0.492,0.992,0.721,0.326,0.575,0.540,��쓌,3.6,��
2023/05/30,16:10,0.549,0.818,0.492,0.992,0.720,0.326,0.575,0.539,��쓌,3.4,��
2023/05/30,16:20,0.549,0.818,0.492,0.992,0.721,0.326,0.574,0.540,��쓌,2.3,��
2023/05/30,16:30,0.549,0.819,0.493,0.994,0.720,0.325,0.575,0.537,��쓌,2.0,��
2023/05/30,16:40,0.551,0.819,0.493,0.992,0.721,0.326,0.575,0.539,�쓌,2.0,��
2023/05/30,16:50,0.547,0.816,0.496,0.992,0.722,0.325,0.575,0.539,��쓌,1.7,��
2023/05/30,17:00,0.547,0.817,0.495,0.993,0.721,0.326,0.577,0.537,���쓌,1.2,��
2023/05/30,17:10,0.548,0.817,0.494,0.992,0.721,0.325,0.576,0.539,�쓌,1.7,��
2023/05/30,17:20,0.549,0.818,0.496,0.992,0.721,0.325,0.577,0.539,�쓌,2.5,��
2023/05/30,17:30,0.548,0.817,0.493,0.993,0.722,0.325,0.576,0.540,��쓌,3.5,��
2023/05/30,17:40,0.548,0.819,0.497,0.993,0.721,0.326,0.575,0.540,��쓌,3.7,��
2023/05/30,17:50,0.549,0.818,0.495,0.995,0.720,0.325,0.575,0.541,��쓌,2.8,��
2023/05/30,18:00,0.549,0.817,0.496,0.994,0.723,0.326,0.576,0.541,��,2.2,��
2023/05/30,18:10,0.548,0.816,0.497,0.995,0.720,0.325,0.577,0.541,���쓌,2.6,��
2023/05/30,18:20,0.549,0.819,0.495,0.995,0.721,0.326,0.578,0.541,�k�k��,2.3,��
2023/05/30,18:30,0.549,0.818,0.496,0.995,0.722,0.326,0.578,0.542,�k,4.5,��
2023/05/30,18:40,0.551,0.820,0.495,0.995,0.721,0.326,0.579,0.541,�k,2.9,��
2023/05/30,18:50,0.548,0.819,0.496,0.995,0.722,0.327,0.576,0.541,-,CALM,��
2023/05/30,19:00,0.549,0.819,0.497,0.996,0.724,0.326,0.578,0.542,�k�k��,2.0,��
2023/05/30,19:10,0.551,0.818,0.496,0.994,0.723,0.326,0.577,0.543,�k�k��,4.0,��
2023/05/30,19:20,0.550,0.819,0.496,0.996,0.723,0.326,0.576,0.541,�k�k��,3.3,��
2023/05/30,19:30,0.551,0.817,0.495,0.994,0.723,0.325,0.578,0.541,�k�k��,3.1,��
2023/05/30,19:40,0.550,0.818,0.497,0.993,0.724,0.326,0.577,0.541,�k�k��,2.3,��
2023/05/30,19:50,0.550,0.819,0.496,0.995,0.725,0.326,0.579,0.541,�k�k��,4.1,��
2023/05/30,20:00,0.551,0.820,0.496,0.993,0.724,0.326,0.577,0.541,�k�k��,4.6,��
2023/05/30,20:10,0.551,0.821,0.497,0.994,0.723,0.328,0.577,0.542,�k�k��,5.8,��
2023/05/30,20:20,0.550,0.820,0.497,0.996,0.725,0.327,0.579,0.541,�k�k��,7.8,��
2023/05/30,20:30,0.551,0.819,0.497,0.995,0.724,0.327,0.578,0.542,�k�k��,6.0,��
2023/05/30,20:40,0.550,0.821,0.497,0.996,0.724,0.326,0.578,0.541,�k��,4.4,��
2023/05/30,20:50,0.551,0.819,0.497,0.997,0.724,0.327,0.578,0.542,�k��,5.8,��
2023/05/30,21:00,0.550,0.818,0.497,0.995,0.723,0.326,0.578,0.542,�k��,5.7,��
2023/05/30,21:10,0.551,0.819,0.497,0.997,0.725,0.325,0.577,0.542,�k�k��,5.8,��
2023/05/30,21:20,0.550,0.820,0.495,0.998,0.725,0.326,0.577,0.543,�k�k��,5.2,��
2023/05/30,21:30,0.551,0.819,0.496,0.997,0.723,0.327,0.577,0.541,�k�k��,5.5,��
2023/05/30,21:40,0.549,0.820,0.495,0.996,0.723,0.326,0.579,0.542,�k�k��,4.0,��
2023/05/30,21:50,0.550,0.819,0.496,0.995,0.724,0.326,0.578,0.541,�k�k��,5.1,��
2023/05/30,22:00,0.550,0.818,0.496,0.995,0.724,0.324,0.577,0.543,�k�k��,4.3,��
2023/05/30,22:10,0.549,0.819,0.495,0.997,0.725,0.327,0.578,0.540,�k��,3.1,��
2023/05/30,22:20,0.550,0.818,0.497,0.996,0.723,0.326,0.578,0.541,���k��,2.2,��
2023/05/30,22:30,0.551,0.819,0.497,0.999,0.723,0.326,0.577,0.541,��,0.9,��
2023/05/30,22:40,0.551,0.821,0.496,0.995,0.724,0.325,0.579,0.542,-,CALM,��
2023/05/30,22:50,0.550,0.820,0.497,0.994,0.724,0.327,0.579,0.541,-,CALM,��
2023/05/30,23:00,0.551,0.818,0.496,0.996,0.724,0.327,0.579,0.541,�k��,0.9,��
2023/05/30,23:10,0.549,0.819,0.495,0.997,0.723,0.327,0.578,0.542,�k��,3.6,��
2023/05/30,23:20,0.551,0.820,0.496,0.997,0.724,0.326,0.578,0.542,�k��,3.9,��
2023/05/30,23:30,0.549,0.820,0.495,0.997,0.723,0.328,0.576,0.540,�k�k��,4.3,��
2023/05/30,23:40,0.549,0.819,0.496,0.996,0.724,0.326,0.578,0.541,�k�k��,3.7,��
2023/05/30,23:50,0.550,0.820,0.494,0.996,0.722,0.326,0.578,0.541,�k,1.9,��
